Terminal Aerodrome Forecast
Issued by NWS Cleveland, OH

Home | Current Version | Previous Version | Graphics & Text | Print | Product List | Glossary Off
Versions: 1 2 3 4 5 6 7 8 9 10 11 12 13 14 15 16 17 18 19 20 21 22 23

000
FTUS41 KCLE 251504 AAA
TAFCLE
TAF AMD
KCLE 251504Z 2515/2618 16004KT P6SM SCT250
     FM251700 04008KT P6SM SCT250
     FM260200 15003KT P6SM SCT250=

USA.gov is the U.S. government's official web portal to all federal, state and local government web resources and services.